When you browse on this site, cookies collect data to enhance your experience and personalize the content and advertising you see.
Visit our Privacy Policy to learn more. By continuing to use the site, you agree to this use of cookies and data.
  • în România
  • Lista ţărilor
  • Pe 7 zile
  • Temperatura apei
  • Hartă satelitară
  • Meteo pe hartă
  • Widget-uri
  • user-avatar
    Intrare

    Meteo pe oră la Yanagushevo

    Astăzi, 22 Februarie, Vineri

    Timp Temperatura Precipitaţii Vânt Presiune Umiditate
    00:00 -6°C° 0.4 mm 7 m/s 746 mmHg 91%
    01:00 -6°C° 0.4 mm 7 m/s 746 mmHg 91%
    02:00 -6°C° 0.2 mm 7 m/s 745 mmHg 91%
    03:00 -4°C° 0.2 mm 7 m/s 745 mmHg 90%
    04:00 -4°C° 0.2 mm 7 m/s 745 mmHg 90%
    05:00 -4°C° 0.2 mm 7 m/s 745 mmHg 90%
    06:00 -6°C° 0.2 mm 7 m/s 745 mmHg 91%
    07:00 -6°C° 0.2 mm 7 m/s 744 mmHg 91%
    08:00 -6°C° 0.4 mm 7 m/s 744 mmHg 91%
    09:00 -6°C° 0.4 mm 7 m/s 744 mmHg 92%
    10:00 -6°C° 0.4 mm 7 m/s 744 mmHg 92%
    11:00 -6°C° 0.4 mm 7 m/s 744 mmHg 91%
    12:00 -4°C° 0.4 mm 7 m/s 744 mmHg 91%
    13:00 -4°C° 0.4 mm 7 m/s 744 mmHg 90%
    14:00 -4°C° 0.4 mm 7 m/s 744 mmHg 90%
    15:00 -3°C° 0.4 mm 7 m/s 744 mmHg 90%
    16:00 -3°C° 0.4 mm 7 m/s 744 mmHg 90%
    17:00 -3°C° 0.5 mm 6 m/s 744 mmHg 91%
    18:00 -4°C° 0.5 mm 6 m/s 745 mmHg 93%
    19:00 -4°C° 0.5 mm 5 m/s 745 mmHg 95%
    20:00 -5°C° 0.3 mm 5 m/s 746 mmHg 92%
    21:00 -7°C° 0.3 mm 5 m/s 747 mmHg 90%
    22:00 -9°C° 0.3 mm 4 m/s 748 mmHg 87%
    23:00 -10°C° 0 mm 4 m/s 749 mmHg 89%

    Mâine, 23 Februarie, Sâmbătă

    Timp Temperatura Precipitaţii Vânt Presiune Umiditate
    00:00 -12°C° 0 mm 4 m/s 750 mmHg 91%
    01:00 -13°C° 0 mm 3 m/s 751 mmHg 93%
    02:00 -14°C° 0 mm 4 m/s 751 mmHg 93%
    03:00 -14°C° 0 mm 4 m/s 751 mmHg 94%
    04:00 -12°C° 0 mm 4 m/s 752 mmHg 95%
    05:00 -12°C° 0.1 mm 4 m/s 752 mmHg 95%
    06:00 -12°C° 0.1 mm 4 m/s 752 mmHg 95%
    07:00 -12°C° 0.1 mm 4 m/s 752 mmHg 95%
    08:00 -12°C° 0.1 mm 4 m/s 753 mmHg 94%
    09:00 -11°C° 0.1 mm 4 m/s 753 mmHg 94%
    10:00 -11°C° 0.1 mm 4 m/s 753 mmHg 93%
    11:00 -10°C° 0.1 mm 4 m/s 753 mmHg 92%
    12:00 -10°C° 0.1 mm 4 m/s 753 mmHg 91%
    13:00 -9°C° 0.1 mm 4 m/s 753 mmHg 90%
    14:00 -9°C° 0.1 mm 4 m/s 753 mmHg 90%
    15:00 -8°C° 0.1 mm 3 m/s 753 mmHg 91%
    16:00 -8°C° 0.1 mm 3 m/s 753 mmHg 91%
    17:00 -9°C° 0.1 mm 3 m/s 753 mmHg 92%
    18:00 -9°C° 0.1 mm 3 m/s 753 mmHg 94%
    19:00 -9°C° 0.1 mm 2 m/s 753 mmHg 95%
    20:00 -10°C° 0 mm 2 m/s 753 mmHg 95%
    21:00 -10°C° 0 mm 2 m/s 753 mmHg 96%
    22:00 -12°C° 0 mm 2 m/s 753 mmHg 96%
    23:00 -10°C° 0.1 mm 2 m/s 754 mmHg 96%

    Poimâine, 24 Februarie, Duminică

    Timp Temperatura Precipitaţii Vânt Presiune Umiditate
    00:00 -12°C° 0.1 mm 3 m/s 754 mmHg 97%
    01:00 -10°C° 0.1 mm 3 m/s 754 mmHg 97%
    02:00 -12°C° 0.1 mm 3 m/s 754 mmHg 96%
    03:00 -12°C° 0.1 mm 3 m/s 754 mmHg 96%
    04:00 -14°C° 0.1 mm 4 m/s 754 mmHg 95%
    05:00 -13°C° 0.1 mm 3 m/s 754 mmHg 96%
    06:00 -14°C° 0.1 mm 3 m/s 755 mmHg 96%
    07:00 -14°C° 0.1 mm 3 m/s 755 mmHg 96%
    08:00 -14°C° 0.1 mm 3 m/s 755 mmHg 95%
    09:00 -14°C° 0.1 mm 3 m/s 755 mmHg 94%
    10:00 -15°C° 0.1 mm 4 m/s 755 mmHg 94%
    11:00 -16°C° 0 mm 4 m/s 755 mmHg 92%
    12:00 -16°C° 0 mm 4 m/s 755 mmHg 90%
    13:00 -15°C° 0 mm 3 m/s 755 mmHg 88%
    14:00 -15°C° 0 mm 3 m/s 755 mmHg 88%
    15:00 -14°C° 0 mm 3 m/s 754 mmHg 88%
    16:00 -14°C° 0 mm 3 m/s 754 mmHg 89%
    17:00 -15°C° 0 mm 3 m/s 754 mmHg 90%
    18:00 -15°C° 0 mm 3 m/s 754 mmHg 92%
    19:00 -16°C° 0 mm 3 m/s 754 mmHg 93%
    20:00 -16°C° 0 mm 3 m/s 754 mmHg 93%
    21:00 -16°C° 0 mm 3 m/s 753 mmHg 94%
    22:00 -16°C° 0 mm 3 m/s 753 mmHg 94%
    23:00 -15°C° 0.1 mm 3 m/s 753 mmHg 94%

    25 Februarie, Luni

    Timp Temperatura Precipitaţii Vânt Presiune Umiditate
    00:00 -15°C° 0.1 mm 3 m/s 752 mmHg 95%
    01:00 -15°C° 0.1 mm 3 m/s 752 mmHg 95%
    02:00 -15°C° 0.1 mm 3 m/s 752 mmHg 95%
    03:00 -15°C° 0.1 mm 3 m/s 751 mmHg 96%
    04:00 -15°C° 0.1 mm 3 m/s 751 mmHg 96%
    05:00 -15°C° 0.1 mm 3 m/s 751 mmHg 96%
    06:00 -15°C° 0.1 mm 3 m/s 750 mmHg 96%
    07:00 -15°C° 0.1 mm 3 m/s 750 mmHg 97%
    08:00 -15°C° 0 mm 3 m/s 750 mmHg 96%
    09:00 -14°C° 0 mm 3 m/s 749 mmHg 96%
    10:00 -14°C° 0 mm 3 m/s 749 mmHg 95%
    11:00 -13°C° 0 mm 3 m/s 748 mmHg 95%
    12:00 -12°C° 0 mm 4 m/s 748 mmHg 94%
    13:00 -11°C° 0 mm 4 m/s 747 mmHg 93%
    14:00 -11°C° 0 mm 4 m/s 747 mmHg 93%
    15:00 -11°C° 0 mm 4 m/s 746 mmHg 93%
    16:00 -11°C° 0 mm 4 m/s 746 mmHg 93%
    17:00 -11°C° 0 mm 4 m/s 745 mmHg 93%
    18:00 -11°C° 0 mm 4 m/s 745 mmHg 94%
    19:00 -11°C° 0 mm 4 m/s 745 mmHg 94%
    20:00 -12°C° 0 mm 4 m/s 744 mmHg 94%
    21:00 -13°C° 0 mm 5 m/s 744 mmHg 94%
    22:00 -13°C° 0 mm 5 m/s 743 mmHg 95%
    23:00 -13°C° 0 mm 5 m/s 743 mmHg 95%

    26 Februarie, Marţi

    Timp Temperatura Precipitaţii Vânt Presiune Umiditate
    00:00 -12°C° 0 mm 4 m/s 742 mmHg 95%
    01:00 -12°C° 0 mm 4 m/s 742 mmHg 95%
    02:00 -12°C° 0.1 mm 4 m/s 741 mmHg 95%
    03:00 -12°C° 0.1 mm 4 m/s 741 mmHg 95%
    04:00 -12°C° 0.1 mm 4 m/s 741 mmHg 95%
    05:00 -12°C° 0.1 mm 4 m/s 740 mmHg 95%
    06:00 -12°C° 0.1 mm 4 m/s 740 mmHg 94%
    07:00 -11°C° 0.1 mm 4 m/s 740 mmHg 94%
    08:00 -11°C° 0 mm 4 m/s 740 mmHg 94%
    09:00 -10°C° 0 mm 4 m/s 740 mmHg 94%
    10:00 -10°C° 0 mm 4 m/s 739 mmHg 93%
    11:00 -9°C° 0 mm 4 m/s 739 mmHg 93%
    12:00 -8°C° 0 mm 4 m/s 739 mmHg 92%
    13:00 -7°C° 0 mm 4 m/s 739 mmHg 91%
    14:00 -7°C° 0 mm 4 m/s 739 mmHg 91%
    15:00 -6°C° 0 mm 3 m/s 739 mmHg 91%
    16:00 -5°C° 0 mm 3 m/s 739 mmHg 91%
    17:00 -6°C° 0 mm 3 m/s 739 mmHg 92%
    18:00 -6°C° 0 mm 2 m/s 739 mmHg 94%
    19:00 -6°C° 0 mm 2 m/s 739 mmHg 95%
    20:00 -6°C° 0 mm 2 m/s 739 mmHg 95%
    21:00 -6°C° 0 mm 2 m/s 739 mmHg 95%
    22:00 -6°C° 0 mm 2 m/s 740 mmHg 95%
    23:00 -6°C° 0.1 mm 2 m/s 740 mmHg 95%

    27 Februarie, Miercuri

    Timp Temperatura Precipitaţii Vânt Presiune Umiditate
    00:00 -6°C° 0.1 mm 2 m/s 740 mmHg 95%
    01:00 -5°C° 0.1 mm 2 m/s 740 mmHg 95%
    02:00 -6°C° 0 mm 2 m/s 740 mmHg 94%
    03:00 -7°C° 0 mm 2 m/s 740 mmHg 94%
    04:00 -7°C° 0 mm 2 m/s 740 mmHg 93%
    05:00 -8°C° 0 mm 2 m/s 740 mmHg 93%
    06:00 -8°C° 0 mm 2 m/s 740 mmHg 92%
    07:00 -9°C° 0 mm 2 m/s 740 mmHg 92%
    08:00 -8°C° 0 mm 2 m/s 740 mmHg 91%
    09:00 -7°C° 0 mm 2 m/s 740 mmHg 90%
    10:00 -6°C° 0 mm 2 m/s 740 mmHg 90%
    11:00 -2°C° 0 mm 1 m/s 740 mmHg 88%
    12:00 -1°C° 0 mm 1 m/s 740 mmHg 87%
    13:00 0°C° 0 mm 1 m/s 740 mmHg 86%
    14:00 0°C° 0 mm 1 m/s 739 mmHg 87%
    15:00 0°C° 0 mm 1 m/s 739 mmHg 88%
    16:00 0°C° 0 mm 1 m/s 739 mmHg 89%
    17:00 -1°C° 0.1 mm 1 m/s 739 mmHg 90%
    18:00 -2°C° 0.1 mm 1 m/s 739 mmHg 92%
    19:00 -3°C° 0.1 mm 1 m/s 739 mmHg 93%
    20:00 -3°C° 0.1 mm 1 m/s 738 mmHg 93%
    21:00 -3°C° 0.1 mm 1 m/s 738 mmHg 94%
    22:00 -3°C° 0.1 mm 1 m/s 738 mmHg 94%
    23:00 -4°C° 0.1 mm 1 m/s 738 mmHg 95%
    Arată mai mult